Starlink 2071

operational
NORAD ID: 47361 Int'l Des: 2021-005 Owner: SPXS Country: US Constellation: starlink
LEOCIRCULARSTARLINK_TYPE

Starlink 2071について

説明を読み込み中...

リアルタイム位置

3D地球を読み込み中...

次回通過

高度履歴

Altitude vs Time

uPlot chart will show altitude changes over time

軌道要素

1 47361U 21005N 25304.07921509 .00009539 00000-0 65805-3 0 9999
2 47361 53.0540 253.4616 0001748 89.8644 270.2545 15.06419641263920
Epoch: Oct 31, 2025 • Age: 11 hours

現在のステータス

高度 557.8 km
速度 7.58 km/s
衛星直下点 -31.90°S, 9.39°W
打ち上げ日 Jan 20, 2021
運用期間 4.7 years
タイプ internet

技術仕様

分類 Payload
質量 260.00 kg
乾燥質量 248.00 kg
総質量 260.00 kg
長さ 0.20 m
直径 2.80 m
スパン 9.00 m
形状 Box + pan
製造者 SPXS
バスタイプ Starlink
フェーズステータス In Orbit
所有者/国 SPXS/US

大規模コンステレーション

Loading constellations...